Flag for U.S.A. Weather past 2 weeks in Pasadena, California, U.S.A.

Now
86 °F

Sunny.


Feels Like: 83 °F
Forecast: 66 / 91 °F
Wind: 6 mph from Southeast

Location: Burbank-Glendale-Pasadena Airport

Current Time: Jul 29, 2014 at 12:32:33 PM

Latest Report: Jul 29, 2014 at 11:53 AM


Visibility: 10 mi

Pressure: 29.97 "Hg

Humidity: 27%

Dew point: 48 °F

Location of PasadenaLocation

Historic Weather in Pasadena — Graph

°F

Pasadena temperature yesterday

Maximum temperature yesterday: 90 °F (at 1:53 PM)
Minimum temperature yesterday: 69 °F (at 1:53 AM)
Average temperature yesterday: 79 °F

Past Weeks' High & Low Weather Summary

 TemperatureHumidityPressure
High97 °F (Jul 24, 3:53 PM)87% (Jul 19, 5:53 AM)30.03 "Hg (Jul 19, 5:53 AM)
Low62 °F (Jul 18, 4:53 AM)15% (Jul 27, 3:53 PM)29.70 "Hg (Jul 24, 6:53 PM)
Average75 °F58%29.93 "Hg
* Reported Jul 14 10:53 AM — Jul 29 10:53 AM, Pasadena, Weather by CustomWeather, © 2014

Note: Actual official high and low records may vary slightly from our data, if they occured in-between our weather recording intervals... More about our weather records

Advertising

Pasadena weather history for previous 24 hours

 ConditionsComfort  
Time TempWeatherWind HumidityBarometerVisibility
10:53 AM
Jul 29
84 °FSunny.3 mph30%29.99 "Hg10 mi
9:53 AM82 °FSunny.5 mph25%30.00 "Hg10 mi
8:53 AM78 °FSunny.No wind35%30.01 "Hg10 mi
7:53 AM73 °FSunny.No wind44%30.01 "Hg10 mi
6:53 AM71 °FClear.No wind45%30.00 "Hg10 mi
5:53 AM71 °FClear.3 mph49%29.98 "Hg10 mi
4:53 AM71 °FClear.No wind59%29.99 "Hg10 mi
3:53 AM72 °FClear.5 mph59%29.99 "Hg10 mi
2:53 AM74 °FClear.3 mph52%29.98 "Hg10 mi
1:53 AM73 °FClear.No wind62%29.98 "Hg10 mi
12:53 AM73 °FClear.3 mph66%29.98 "Hg10 mi
11:53 PM
Jul 28
77 °FClear.6 mph42%29.99 "Hg10 mi
10:53 PM79 °FClear.No wind30%29.98 "Hg10 mi
9:53 PM80 °FClear.No wind31%29.98 "Hg10 mi
8:53 PM79 °FSunny.3 mph36%29.98 "Hg10 mi
7:53 PM82 °FSunny.5 mph26%29.95 "Hg10 mi
6:53 PM85 °FSunny.7 mph24%29.94 "Hg10 mi
5:53 PM87 °FSunny.7 mph24%29.93 "Hg10 mi
4:53 PM88 °FSunny.9 mph22%29.94 "Hg10 mi
3:53 PM87 °FSunny.10 mph22%29.96 "Hg10 mi
2:53 PM87 °FSunny.10 mph27%29.98 "Hg10 mi
1:53 PM90 °FSunny.10 mph28%29.98 "Hg10 mi
12:53 PM87 °FSunny.6 mph31%30.01 "Hg10 mi
Weather by CustomWeather, © 2014

See weather overviewHow to use our weather pages